Date String (YYYY-MM-DD hh:mm:ss) UTC,Instrument flags,Ambient pressure (hPa),Sample flow (lpm),Bypass flow (lpm),Sample temperature (°C),Ambient temperature (°C),ASC tube jacket temperature (°C),LED temperature (°C),Box temperature (°C),Sample RH (%),Span deviation,Mass concentration (μg/m³),Mass concentration (μg/m³),Mass concentration (μg/m³)
DateTimeUTC,F1_M11,P_M11,Q1_M11,Q2_M11,T1_M11,T2_M11,T3_M11,T4_M11,T5_M11,U1_M11,ZSPAN_M11,X0_M11,X2_M11,X1_M11
2022-09-28 18:00:00,,0833.3,5.01,0.00,30.3,27.0,00.0,39.0,32.0,20.2,0000.0,0013.45,0005.39,0004.24
2022-09-28 18:01:00,,0833.3,5.00,0.00,30.3,27.3,00.0,39.0,31.9,20.5,0000.0,0013.02,0005.32,0004.23
2022-09-28 18:02:00,,0833.3,5.01,0.00,30.2,27.7,00.0,38.9,31.9,20.7,0000.0,0012.93,0005.30,0004.22
2022-09-28 18:03:00,,0833.1,5.00,0.00,30.2,28.0,00.0,38.9,31.9,20.9,0000.0,0013.06,0005.30,0004.22
2022-09-28 18:04:00,,0833.2,5.00,0.00,30.2,28.2,00.0,38.9,32.0,21.2,0000.0,0012.56,0005.29,0004.21
2022-09-28 18:05:00,,0833.1,5.00,0.00,30.2,28.4,00.0,38.9,32.0,21.4,0000.0,0012.46,0005.26,0004.21
2022-09-28 18:06:00,,0833.1,5.00,0.00,30.2,28.5,00.0,38.9,32.0,20.9,0000.0,0014.23,0005.22,0004.20
2022-09-28 18:07:00,,0833.2,5.01,0.00,30.2,28.6,00.0,38.9,32.0,21.5,0000.0,0015.13,0005.21,0004.20
2022-09-28 18:08:00,,0833.2,4.99,0.00,30.2,28.7,00.0,38.9,32.0,22.2,0000.0,0015.63,0005.16,0004.19
2022-09-28 18:09:00,,0833.2,5.01,0.00,30.2,28.8,00.0,38.9,32.1,22.0,0000.0,0017.10,0005.15,0004.19
2022-09-28 18:10:00,,0833.2,5.00,0.00,30.2,28.9,00.0,38.9,32.1,21.9,0000.0,0017.40,0005.15,0004.20
2022-09-28 18:11:00,,0833.1,4.99,0.00,30.2,28.9,00.0,38.9,32.1,21.8,0000.0,0017.72,0005.17,0004.20
2022-09-28 18:12:00,,0833.1,5.01,0.00,30.3,29.0,00.0,38.9,32.1,21.5,0000.0,0017.50,0005.23,0004.20
2022-09-28 18:13:00,,0833.1,4.99,0.00,30.3,29.1,00.0,38.9,32.2,21.4,0000.0,0017.76,0005.26,0004.22
2022-09-28 18:14:00,,0833.1,5.01,0.00,30.3,29.2,00.0,39.0,32.2,21.6,0000.0,0017.83,0005.26,0004.23
2022-09-28 18:15:00,,0833.2,4.99,0.00,30.3,29.2,00.0,39.0,32.2,21.9,0000.0,0018.33,0005.32,0004.23
2022-09-28 18:16:00,,0833.2,5.00,0.00,30.4,29.2,00.0,39.0,32.3,21.9,0000.0,0019.29,0005.38,0004.25
2022-09-28 18:17:00,,0833.2,5.00,0.00,30.4,29.3,00.0,39.0,32.3,21.8,0000.0,0018.76,0005.41,0004.25
2022-09-28 18:18:00,,0833.2,5.00,0.00,30.4,29.4,00.0,39.0,32.3,22.0,0000.0,0017.95,0005.42,0004.25
2022-09-28 18:19:00,,0833.2,5.01,0.00,30.4,28.9,00.0,39.0,32.3,22.2,0000.0,0017.05,0005.40,0004.26
2022-09-28 18:20:00,,0833.2,5.01,0.00,30.4,27.5,00.0,39.0,32.2,22.2,0000.0,0016.73,0005.38,0004.25
2022-09-28 18:21:00,,0833.2,4.99,0.00,30.3,26.8,00.0,39.0,32.1,22.5,0000.0,0017.52,0005.41,0004.24
2022-09-28 18:22:00,,0833.2,4.99,0.00,30.3,27.0,00.0,38.9,32.0,22.5,0000.0,0018.22,0005.39,0004.25
2022-09-28 18:23:00,,0833.1,5.00,0.00,30.2,27.3,00.0,38.9,31.9,22.9,0000.0,0018.57,0005.42,0004.26
2022-09-28 18:24:00,,0833.1,5.00,0.00,30.2,27.7,00.0,38.9,31.9,23.6,0000.0,0018.13,0005.41,0004.24
2022-09-28 18:25:00,,0833.1,4.99,0.00,30.2,28.0,00.0,38.9,31.9,23.6,0000.0,0018.09,0005.40,0004.23
2022-09-28 18:26:00,,0833.0,5.00,0.00,30.2,28.2,00.0,38.9,32.0,23.1,0000.0,0017.64,0005.34,0004.22
2022-09-28 18:27:00,,0833.1,5.00,0.00,30.2,28.4,00.0,38.9,32.0,23.1,0000.0,0016.66,0005.30,0004.20
2022-09-28 18:28:00,,0833.1,4.99,0.00,30.2,28.6,00.0,38.9,32.0,23.5,0000.0,0015.93,0005.27,0004.19
2022-09-28 18:29:00,,0833.1,5.02,0.00,30.2,28.8,00.0,38.9,32.0,23.2,0000.0,0016.04,0005.27,0004.18
2022-09-28 18:30:00,,0833.0,5.01,0.00,30.2,28.9,00.0,38.9,32.1,22.7,0000.0,0015.80,0005.26,0004.17
2022-09-28 18:31:00,,0833.1,4.99,0.00,30.2,29.0,00.0,38.9,32.1,22.6,0000.0,0015.56,0005.29,0004.16
2022-09-28 18:32:00,,0833.0,5.00,0.00,30.2,29.1,00.0,38.9,32.1,22.4,0000.0,0014.86,0005.28,0004.17
2022-09-28 18:33:00,,0833.1,4.99,0.00,30.3,29.2,00.0,38.9,32.2,22.2,0000.0,0014.71,0005.23,0004.16
2022-09-28 18:34:00,,0833.0,5.01,0.00,30.3,29.2,00.0,38.9,32.2,22.3,0000.0,0014.58,0005.18,0004.15
2022-09-28 18:35:00,,0833.0,4.99,0.00,30.3,29.3,00.0,38.9,32.3,22.4,0000.0,0014.43,0005.18,0004.15
2022-09-28 18:36:00,,0833.0,5.00,0.00,30.4,28.8,00.0,38.9,32.3,22.4,0000.0,0014.48,0005.17,0004.15
2022-09-28 18:37:00,,0833.0,5.00,0.00,30.3,27.4,00.0,38.9,32.1,22.4,0000.0,0014.47,0005.13,0004.16
2022-09-28 18:38:00,,0833.0,4.99,0.00,30.3,26.7,00.0,38.9,32.0,22.6,0000.0,0015.66,0005.12,0004.17
2022-09-28 18:39:00,,0832.9,5.00,0.00,30.2,26.8,00.0,38.8,31.9,23.2,0000.0,0018.46,0005.21,0004.20
2022-09-28 18:40:00,,0832.8,5.00,0.00,30.1,27.1,00.0,38.8,31.8,23.2,0000.0,0019.61,0005.24,0004.23
2022-09-28 18:41:00,,0832.9,5.00,0.00,30.1,27.4,00.0,38.8,31.8,23.5,0000.0,0021.10,0005.25,0004.26
2022-09-28 18:42:00,,0832.8,5.00,0.00,30.0,27.7,00.0,38.7,31.8,23.5,0000.0,0020.18,0005.25,0004.28
2022-09-28 18:43:00,,0832.9,4.99,0.00,30.0,28.0,00.0,38.7,31.9,23.5,0000.0,0019.48,0005.25,0004.30
2022-09-28 18:44:00,,0832.8,5.01,0.00,30.0,28.2,00.0,38.7,31.9,23.4,0000.0,0019.49,0005.31,0004.32
2022-09-28 18:45:00,,0832.8,5.00,0.00,30.0,28.4,00.0,38.7,31.9,23.3,0000.0,0018.94,0005.32,0004.33
2022-09-28 18:46:00,,0832.8,4.99,0.00,30.0,28.5,00.0,38.7,32.0,23.3,0000.0,0019.24,0005.36,0004.35
2022-09-28 18:47:00,,0832.8,5.00,0.00,30.1,28.7,00.0,38.7,32.0,23.3,0000.0,0019.75,0005.41,0004.36
2022-09-28 18:48:00,,0832.8,5.00,0.00,30.1,28.8,00.0,38.7,32.0,23.2,0000.0,0019.91,0005.49,0004.39
2022-09-28 18:49:00,,0832.8,5.00,0.00,30.1,28.9,00.0,38.7,32.0,22.9,0000.0,0020.05,0005.53,0004.40
2022-09-28 18:50:00,,0832.8,4.99,0.00,30.1,29.0,00.0,38.8,32.1,22.9,0000.0,0018.03,0005.54,0004.39
2022-09-28 18:51:00,,0832.9,5.00,0.00,30.2,29.1,00.0,38.8,32.1,23.0,0000.0,0016.97,0005.51,0004.37
2022-09-28 18:52:00,,0832.8,5.00,0.00,30.2,29.1,00.0,38.8,32.1,22.9,0000.0,0016.20,0005.51,0004.37
2022-09-28 18:53:00,,0832.8,5.00,0.00,30.2,29.2,00.0,38.8,32.2,22.9,0000.0,0016.32,0005.52,0004.36
2022-09-28 18:54:00,,0832.8,5.01,0.00,30.3,29.3,00.0,38.8,32.2,22.8,0000.0,0017.40,0005.53,0004.35
2022-09-28 18:55:00,,0832.8,5.00,0.00,30.3,29.4,00.0,38.9,32.3,23.0,0000.0,0017.81,0005.54,0004.34
2022-09-28 18:56:00,,0832.7,5.00,0.00,30.4,29.4,00.0,38.9,32.3,23.2,0000.0,0018.18,0005.55,0004.35
2022-09-28 18:57:00,,0832.8,5.01,0.00,30.4,28.6,00.0,38.9,32.3,23.2,0000.0,0017.90,0005.53,0004.34
2022-09-28 18:58:00,,0832.7,5.00,0.00,30.3,27.2,00.0,38.9,32.1,23.1,0000.0,0017.07,0005.49,0004.35
2022-09-28 18:59:00,,0832.8,4.99,0.00,30.3,26.7,00.0,38.8,32.0,23.2,0000.0,0017.30,0005.51,0004.34
